CEST,Max TemperatureF,Mean TemperatureF,Min TemperatureF,Max Dew PointF,MeanDew PointF,Min DewpointF,Max Humidity, Mean Humidity, Min Humidity, Max Sea Level PressureIn, Mean Sea Level PressureIn, Min Sea Level PressureIn, Max VisibilityMiles, Mean VisibilityMiles, Min VisibilityMiles, Max Wind SpeedMPH, Mean Wind SpeedMPH, Max Gust SpeedMPH,PrecipitationIn, CloudCover, Events, WindDirDegrees
2013-3-1,41,36,30,39,34,30,100,94,81,30.18,30.07,30.01,6,3,0,18,7,,0.00,7,Fog,257
2013-3-2,46,36,26,32,27,23,93,69,43,30.15,30.11,30.04,6,6,6,13,8,,0.00,5,,304
2013-3-3,48,34,21,30,26,21,100,74,40,30.12,30.07,30.01,6,4,3,20,6,,0.00,3,Fog,271
2013-3-4,46,34,23,30,25,21,100,71,43,30.33,30.23,30.09,6,6,5,13,4,,0.00,1,Fog,248
2013-3-5,53,38,23,27,23,18,93,60,24,30.36,30.27,30.15,5,5,5,16,7,,0.00,,,115
2013-3-6,53,42,30,39,33,27,87,69,51,30.15,29.98,29.83,6,6,5,12,8,,0.00,6,Rain,104
2013-3-7,53,48,44,46,43,41,93,82,72,29.83,29.73,29.68,6,6,4,13,8,,0.00,6,Rain,120
2013-3-8,60,52,44,52,48,45,100,93,68,29.68,29.63,29.59,6,4,0,12,7,,0.00,6,Fog-Rain,78
2013-3-9,57,50,42,54,49,43,100,98,82,29.59,29.58,29.56,6,3,0,6,3,,0.00,7,Fog-Rain,265
2013-3-10,55,50,46,52,48,46,100,96,77,29.56,29.50,29.47,6,3,0,8,3,,0.00,7,Fog-Rain,247
2013-3-11,57,46,35,46,41,34,100,81,44,29.56,29.49,29.47,6,6,2,16,6,,0.00,4,Fog,290
2013-3-12,55,44,33,45,39,34,100,78,51,29.56,29.51,29.44,6,6,5,12,4,20,0.00,5,Rain,133
2013-3-13,50,46,42,48,45,43,100,94,82,29.47,29.45,29.42,5,4,2,8,5,,0.00,7,Rain,185
2013-3-14,46,38,28,46,38,28,100,100,100,29.44,29.34,29.27,6,3,1,21,10,31,0.00,8,Rain-Snow,354
2013-3-15,32,28,24,28,22,16,100,81,51,29.89,29.54,29.27,6,3,1,23,17,29,0.00,7,Snow,307
2013-3-16,33,27,21,23,18,10,100,67,41,30.15,30.04,29.89,6,6,5,17,10,,0.00,3,,315
2013-3-17,35,25,15,21,18,12,93,72,41,30.15,30.11,30.01,6,5,4,17,8,,0.00,4,,106
2013-3-18,39,32,28,37,28,18,100,81,64,30.01,29.71,29.36,6,4,2,21,15,,0.00,8,Rain-Snow,97
2013-3-19,50,44,37,43,35,28,100,76,47,29.71,29.47,29.30,6,5,3,25,13,34,0.00,6,Rain,237
2013-3-20,57,42,28,45,35,28,100,73,44,29.77,29.74,29.71,6,6,6,13,5,,0.00,5,Fog-Rain,173
2013-3-21,48,42,35,46,42,34,100,96,87,29.77,29.74,29.71,6,6,4,26,12,,0.00,7,Rain,320
2013-3-22,44,37,30,34,28,25,100,72,53,29.95,29.82,29.74,6,5,1,29,22,41,0.00,6,Rain-Snow,301
2013-3-23,33,28,23,27,23,19,100,79,60,30.09,30.04,29.95,6,6,4,13,5,88,0.00,6,,108
2013-3-24,33,27,21,16,7,1,68,44,30,30.18,30.12,30.09,6,6,6,15,11,,0.00,6,,86
2013-3-25,35,32,28,28,15,5,100,59,34,30.09,29.90,29.71,6,4,0,18,11,,0.00,7,Snow,55
2013-3-26,32,29,26,30,28,25,100,96,80,29.74,29.70,29.65,6,3,1,10,7,,0.00,8,Rain-Snow,360
2013-3-27,32,29,26,32,30,27,100,98,87,29.95,29.83,29.74,6,3,1,10,6,,0.00,8,Snow,15
2013-3-28,35,32,30,32,29,25,100,87,70,30.04,30.00,29.95,6,4,1,15,5,,0.00,7,,117
2013-3-29,37,35,33,37,34,30,100,96,87,29.98,29.81,29.74,6,3,1,16,10,,0.00,7,Fog-Rain-Snow,62
2013-3-30,44,38,32,43,38,32,100,96,81,29.74,29.67,29.53,6,4,1,10,5,,0.00,7,Fog-Rain,63
2013-3-31,50,41,32,50,41,28,100,97,87,29.62,29.47,29.39,6,4,2,22,10,,0.00,7,Rain,346
2013-4-1,,,,,,,,,,,,,,,,,,,,,,